Branson, MO

6:33 PM CST on December 15, 2017 (GMT -0600)
Branson

Weather History for KBBG - December, 2012

Change the Weather History Date:

Friday, December 21, 2012

  Actual Average (KHRO) Record (KHRO)
Temperature  
Mean Temperature 37 °F -  
Max Temperature 44 °F 44 °F 69 °F (2015)
Min Temperature 30 °F 24 °F -5 °F (1989)
Degree Days  
Heating Degree Days 28    
Moisture  
Dew Point 13 °F    
Average Humidity 43    
Maximum Humidity 55    
Minimum Humidity 27    
Precipitation  
Precipitation 0.00 in - - ()
Sea Level Pressure  
Sea Level Pressure 30.28 in    
Wind  
Wind Speed 9 mph (WNW)    
Max Wind Speed 16 mph    
Max Gust Speed 29 mph    
Visibility 10 miles    
Events      
Averages and records for this station are not official NWS values.
T = Trace of Precipitation, MM = Missing Value Source: NWS Daily Summary

Daily Weather History Graph

Daily Weather History Graph

Search for Another Location

Airport or City:

Trip Planner

Search our weather history database for the weather conditions in past years. The results will help you decide how hot, cold, wet, or windy it might be!

Date:

Astronomy

Dec. 21, 2012 Rise Set
Actual Time 7:21 AM CST 5:01 PM CST
Civil Twilight 6:52 AM CST 5:30 PM CST
Nautical Twilight 6:20 AM CST 6:02 PM CST
Astronomical Twilight 5:48 AM CST 6:33 PM CST
Moon 12:42 PM CST (12/21) 1:15 AM CST (12/21)
Length of Visible Light 10h 37m
Length of Day
9h 39m
Waxing Gibbous, 65% of the Moon is Illuminated
Dec 21
Waxing Gibbous
Dec 28
Full
Jan 4
Last Quarter
Jan 11
New
Jan 18
First Quarter

Hourly Weather History & Observations

Time (CST) Temp. Windchill Dew Point Humidity Pressure Visibility Wind Dir Wind Speed Gust Speed Precip Events Conditions
12:15 AM 30.2 °F 20.8 °F 12.2 °F 47% 30.22 in 10.0 mi WNW 11.5 mph 21.9 mph N/A   Clear
12:35 AM 30.2 °F 19.3 °F 12.2 °F 47% 30.23 in 10.0 mi WNW 15.0 mph 25.3 mph N/A   Clear
12:55 AM 32.0 °F 22.1 °F 10.4 °F 41% 30.23 in 10.0 mi WNW 13.8 mph 23.0 mph N/A   Clear
1:15 AM 32.0 °F 21.6 °F 10.4 °F 41% 30.23 in 10.0 mi NW 15.0 mph 25.3 mph N/A   Clear
1:35 AM 32.0 °F 21.2 °F 10.4 °F 41% 30.24 in 10.0 mi WNW 16.1 mph 23.0 mph N/A   Clear
1:55 AM 32.0 °F 23.0 °F 12.2 °F 44% 30.24 in 10.0 mi NW 11.5 mph 20.7 mph N/A   Clear
2:15 AM 32.0 °F 22.5 °F 12.2 °F 44% 30.24 in 10.0 mi WNW 12.7 mph 24.2 mph N/A   Clear
2:35 AM 32.0 °F 22.5 °F 12.2 °F 44% 30.24 in 10.0 mi WNW 12.7 mph 19.6 mph N/A   Clear
2:55 AM 32.0 °F 23.0 °F 12.2 °F 44% 30.25 in 10.0 mi WNW 11.5 mph 28.8 mph N/A   Clear
3:15 AM 32.0 °F 23.6 °F 12.2 °F 44% 30.25 in 10.0 mi WNW 10.4 mph 21.9 mph N/A   Clear
3:35 AM 32.0 °F 22.1 °F 12.2 °F 44% 30.26 in 10.0 mi WNW 13.8 mph 20.7 mph N/A   Clear
3:55 AM 32.0 °F 23.0 °F 12.2 °F 44% 30.26 in 10.0 mi WNW 11.5 mph 23.0 mph N/A   Clear
4:15 AM 30.2 °F 20.2 °F 12.2 °F 47% 30.26 in 10.0 mi WNW 12.7 mph 18.4 mph N/A   Clear
4:35 AM 30.2 °F 21.3 °F 12.2 °F 47% 30.26 in 10.0 mi WNW 10.4 mph 17.3 mph N/A   Clear
4:55 AM 30.2 °F 21.3 °F 12.2 °F 47% 30.27 in 10.0 mi WNW 10.4 mph - N/A   Clear
5:15 AM 32.0 °F 23.6 °F 12.2 °F 44% 30.27 in 10.0 mi WNW 10.4 mph 19.6 mph N/A   Clear
5:35 AM 32.0 °F 24.8 °F 12.2 °F 44% 30.28 in 10.0 mi WNW 8.1 mph - N/A   Clear
6:52 AM 30.2 °F 21.9 °F 14.0 °F 51% 30.30 in 10.0 mi WNW 9.2 mph - N/A   Clear
7:52 AM 30.2 °F 21.9 °F 12.2 °F 47% 30.32 in 10.0 mi WNW 9.2 mph - N/A   Clear
8:45 AM 32.0 °F 24.8 °F 12.2 °F 44% 30.33 in 10.0 mi WNW 8.1 mph - N/A   Clear
9:52 AM 35.6 °F 27.5 °F 14.0 °F 41% 30.35 in 10.0 mi NNW 11.5 mph - N/A   Clear
10:45 AM 35.6 °F 28.0 °F 14.0 °F 41% 30.35 in 10.0 mi WNW 10.4 mph - N/A   Clear
11:48 AM 39.2 °F 33.6 °F 10.4 °F 31% 30.33 in 10.0 mi NW 8.1 mph - N/A   Clear
12:55 PM 41.0 °F 37.1 °F 14.0 °F 33% 30.32 in 10.0 mi West 5.8 mph - N/A   Partly Cloudy
1:47 PM 42.8 °F 39.3 °F 10.4 °F 27% 30.31 in 10.0 mi WNW 5.8 mph - N/A   Partly Cloudy
2:48 PM 44.6 °F 41.4 °F 12.2 °F 27% 30.29 in 10.0 mi NW 5.8 mph - N/A   Partly Cloudy
3:45 PM 44.6 °F - 12.2 °F 27% 30.29 in 10.0 mi Calm Calm - N/A   Partly Cloudy
4:45 PM 42.8 °F - 14.0 °F 31% 30.29 in 10.0 mi Calm Calm - N/A   Partly Cloudy
5:55 PM 37.4 °F - 15.8 °F 41% 30.28 in 10.0 mi Calm Calm - N/A   Clear
6:47 PM 35.6 °F - 17.6 °F 48% 30.29 in 10.0 mi Calm Calm - N/A   Clear
7:51 PM 35.6 °F - 14.0 °F 41% 30.30 in 10.0 mi Calm Calm - N/A   Clear
8:15 PM 35.6 °F - 15.8 °F 44% 30.30 in 10.0 mi Calm Calm - N/A   Clear
8:35 PM 33.8 °F - 15.8 °F 48% 30.30 in 10.0 mi Calm Calm - N/A   Clear
8:50 PM 35.6 °F - 14.0 °F 41% 30.30 in 10.0 mi Calm Calm - N/A   Clear
8:55 PM 35.6 °F - 14.0 °F 41% 30.30 in 10.0 mi Calm Calm - N/A   Clear
9:15 PM 33.8 °F - 15.8 °F 48% 30.30 in 10.0 mi Calm Calm - N/A   Clear
9:35 PM 33.8 °F - 14.0 °F 44% 30.30 in 10.0 mi Calm Calm - N/A   Clear
9:55 PM 32.0 °F - 17.6 °F 55% 30.29 in 10.0 mi Calm Calm - N/A   Clear
10:15 PM 35.6 °F - 15.8 °F 44% 30.29 in 10.0 mi Calm Calm - N/A   Clear
10:35 PM 35.6 °F 30.7 °F 15.8 °F 44% 30.28 in 10.0 mi SE 5.8 mph - N/A   Clear
10:55 PM 35.6 °F 31.7 °F 15.8 °F 44% 30.28 in 10.0 mi SE 4.6 mph - N/A   Clear
11:15 PM 35.6 °F 30.7 °F 15.8 °F 44% 30.28 in 10.0 mi SE 5.8 mph - N/A   Clear
11:35 PM 35.6 °F 30.7 °F 15.8 °F 44% 30.28 in 10.0 mi SSE 5.8 mph - N/A   Clear
11:55 PM 35.6 °F 29.9 °F 17.6 °F 48% 30.27 in 10.0 mi SSE 6.9 mph - N/A   Clear